GORIZONT 4 [-]

Last updated on Dec. 5, 2020, 6:14 a.m. UTC

1 11841U 80049A   20339.54341823 -.00000014  00000-0  00000-0 0  9999
2 11841  11.7940 315.0280 0003302 346.5356   6.3453  0.98628929213581
UTC
Height (km)
Latitude
Longitude
Inclination
Orbital Period
UTC large
Height (km)
Speed (km/s)
/
Latitude / Longitude
Inclination (degrees)
Orbital Period (minutes)
Azimuth
Elevation
Range (km)
Doppler Factor
iOS Compass Heading
iOS Angle

Next 30 passes for location: Hong Kong

Rise time Rise Azimuth (degrees) Set time Set Azimuth (degrees) Duration Max altitude (degrees)

No matching passes for this satellites